Find Starlink 32079

NORAD ID: 60336 Int'l Des: 2024-136 Owner: SPXS Country: US Constellation: starlink operational
LEOCIRCULAR

当前视图

正在加载3D地球...

About Starlink 32079

Starlink 32079 (NORAD 60336) is a starlink constellation satellite (v2 mini) launched Aug 2, 2024 by SPXS of US. It operates in LEO, CIRCULAR orbit with a mass of 730.00 kg.

即将过境

Passes for default location (London). Set your location on the main map for personalized predictions.

高度历史

Loading altitude history...

两行轨道根数

1 60336U 24136H 26235.91668981 .00032269 00000-0 98838-3 0 9991
2 60336 53.1585 18.9609 0001331 79.6902 45.9809 15.33545313 5778
Epoch: Aug 23, 2026 • Age: 12 hours

当前状态

高度 465.1 km
远地点 / 近地点 N/A
速度 7.64 km/s
星下点 19.16°N, 92.17°W
发射日期 Aug 2, 2024
运行时间 2 years
类型 internet

技术详情

分类 Payload
质量 730.00 kg
干质量 700.00 kg
总质量 730.00 kg
长度 0.30 m
直径 4.10 m
跨度 29.00 m
形状 Box + pan
制造商 SPXS
平台类型 Starlink V2M
阶段状态 In Orbit
所有者/国家 SPXS/US

Most Searched